Wind_Speed
4 4 4 4 4 4 4 4 5 5 5 5 6 6 6 6 7 7 7 8 8 9 9 10 11 11 12 11 11 11 10 9 8 7 7 7 6 6 6 6 7 8 8
4 4 4 4 4 4 4 4 4 4 4 4 4 4 5 5 5 5 5 5 6 6 7 8 8 9 10 10 10 9 9 8 7 7 6 6 5 5 5 5 6 7 8
5 5 5 4 4 3 4 4 4 4 4 3 3 3 3 3 3 3 3 3 4 4 5 6 6 7 7 8 8 8 7 7 6 5 5 4 4 4 4 4 5 6 7
5 5 5 4 3 3 4 3 4 4 4 4 3 3 3 3 3 3 4 4 4 4 4 5 5 5 5 6 6 6 6 5 5 4 3 3 3 3 3 4 4 5 6
5 5 4 3 3 3 3 3 4 4 5 5 5 4 4 5 5 5 6 6 6 6 6 6 6 6 5 5 5 5 5 4 3 2 2 1 2 3 3 3 4 5 6
6 5 4 3 3 3 4 4 5 5 6 6 6 6 6 7 7 7 8 8 9 9 9 8 8 8 8 8 7 7 6 5 3 2 1 0 2 3 3 4 4 5 5
6 6 6 5 4 5 5 6 7 7 7 7 7 8 8 9 9 9 9 10 11 11 11 11 11 12 11 11 11 10 9 8 6 5 4 3 3 3 4 4 5 5 6
7 8 8 7 6 6 7 8 8 8 8 8 8 9 9 9 10 10 11 12 13 13 13 13 13 14 14 14 14 14 14 12 10 9 7 6 5 5 5 6 6 6 7
9 9 9 8 8 8 9 9 9 9 9 9 10 10 11 11 12 12 13 14 15 15 15 16 16 16 16 16 16 17 17 16 15 13 11 10 8 8 7 7 8 8 8
11 11 11 11 11 11 10 10 11 11 11 12 12 12 13 13 14 14 15 16 17 17 18 18 18 19 19 19 19 19 19 19 19 17 15 14 12 11 11 10 10 10 10
13 13 13 13 13 12 12 13 13 13 14 14 15 15 16 16 17 17 18 19 20 20 21 21 21 21 22 22 22 21 21 22 21 21 20 18 16 15 14 13 13 12 12
16 16 16 17 17 16 16 16 17 17 17 18 19 19 19 19 19 20 20 21 22 23 23 24 23 24 24 24 24 24 23 23 23 24 24 22 20 19 18 17 16 16 15
20 20 19 20 20 20 20 20 20 21 22 22 22 22 22 22 22 22 22 23 24 25 25 25 25 26 25 26 26 24 25 25 25 26 26 26 25 23 22 21 20 19 18
22 22 22 23 23 24 25 24 23 24 24 25 25 24 24 24 24 23 24 26 27 27 27 27 26 27 27 28 27 25 24 24 25 26 27 28 28 27 26 25 24 23 22
22 23 24 24 25 26 26 26 26 26 26 26 25 25 25 25 25 26 27 28 28 29 29 29 29 29 29 29 29 27 26 25 25 26 27 28 29 29 28 28 26 26 25
22 22 23 24 25 24 25 26 25 24 25 26 26 26 26 26 27 29 29 30 30 30 31 31 31 31 30 30 29 29 28 27 28 28 27 27 29 30 29 29 29 29 28
20 21 21 22 23 24 24 25 26 27 27 27 28 28 29 29 31 32 32 32 32 32 32 32 31 31 32 31 31 30 29 29 29 29 29 28 29 30 30 30 30 29 30
18 19 20 21 22 23 24 25 26 27 27 28 29 29 30 31 31 32 33 32 33 33 34 34 33 33 33 33 32 31 31 30 29 29 29 29 29 28 29 31 31 31 30
18 19 20 21 22 23 24 25 26 27 28 28 29 30 30 31 32 32 33 33 34 35 35 35 35 34 34 33 33 32 31 31 31 30 30 30 30 29 29 31 32 32 33
17 18 19 20 21 22 23 24 26 27 28 29 30 30 31 32 33 34 34 35 35 36 36 35 35 35 35 34 33 33 32 31 31 31 30 30 30 30 29 31 32 32 32
17 19 20 21 22 24 25 26 27 29 30 30 31 32 33 33 34 34 35 36 36 36 36 37 36 36 36 36 35 34 33 33 32 32 32 32 32 32 31 31 33 32 32
18 19 20 21 23 25 26 28 29 30 31 32 32 32 33 33 34 34 35 35 35 36 36 37 37 37 36 37 36 35 35 35 35 33 33 33 33 33 32 31 32 33 33
18 19 21 23 25 27 28 30 31 32 33 33 33 34 34 34 34 34 34 35 35 35 36 36 36 36 36 36 36 36 36 36 37 35 34 34 34 34 34 33 32 34 34
19 21 22 24 26 27 28 30 31 32 33 33 34 34 35 34 34 34 34 34 34 35 35 36 36 36 35 36 36 36 36 36 36 36 35 35 35 35 34 34 34 35 35
19 21 22 23 25 27 28 29 30 30 31 32 33 33 34 34 34 34 34 34 34 34 35 35 36 36 36 36 36 36 35 35 36 36 36 37 37 36 36 35 34 36 35
19 20 22 23 25 26 27 28 28 29 29 30 31 31 32 33 33 34 34 34 35 35 35 35 35 36 36 36 36 36 36 35 35 35 35 37 38 37 37 36 35 35 36
Wind_Direction
356 1 357 350 353 6 15 27 41 50 57 63 65 62 57 52 49 45 44 43 42 40 39 37 36 36 38 40 42 46 50 54 60 67 74 79 87 95 101 106 111 114 116
351 349 346 347 356 3 6 13 25 32 41 50 57 58 51 44 39 34 29 29 29 28 26 28 29 28 29 32 36 39 43 46 52 61 70 77 85 98 108 112 117 121 121
336 332 332 339 352 1 359 1 9 14 19 25 36 40 35 25 17 11 4 358 359 3 3 5 11 14 16 18 23 30 36 40 45 54 66 79 90 104 117 124 128 132 130
321 317 320 328 341 352 349 348 351 353 352 351 353 351 346 336 327 324 320 315 315 320 327 331 337 344 351 355 359 8 19 29 37 46 62 87 109 120 129 138 143 144 142
303 304 308 311 321 335 337 333 330 328 325 321 319 315 313 310 306 304 300 297 295 295 296 300 303 306 310 316 322 332 342 354 11 29 57 97 139 149 151 154 159 160 156
293 288 290 292 296 301 305 308 309 306 303 301 301 301 301 299 298 298 295 293 292 291 291 289 286 286 286 287 289 292 299 305 311 317 321 196 188 176 175 176 175 175 171
292 287 284 278 277 278 283 290 293 290 290 292 294 295 296 296 293 293 292 291 291 290 290 289 286 283 281 278 277 277 276 277 279 278 271 249 227 209 193 190 193 193 189
289 286 278 273 272 276 279 284 285 284 285 288 290 291 292 293 293 293 292 292 292 291 289 288 285 284 281 278 274 272 271 270 268 266 263 254 243 231 215 205 204 205 204
290 283 278 273 273 277 279 278 280 284 287 289 290 290 292 292 294 294 294 293 293 292 291 290 286 284 281 278 274 270 268 267 265 263 261 256 249 241 232 221 216 215 213
293 285 275 272 272 273 275 274 276 279 282 286 288 289 290 292 294 293 292 291 291 290 290 289 287 285 281 278 275 271 265 263 264 261 259 254 249 245 239 231 225 220 218
289 285 278 274 272 274 275 275 274 274 277 279 281 282 285 287 289 289 288 288 288 289 289 288 287 286 283 281 277 273 266 262 261 259 256 254 248 245 240 235 231 227 223
284 280 279 272 272 269 269 272 273 270 271 273 274 276 279 280 282 283 283 284 286 287 287 286 287 287 285 282 281 276 269 263 260 260 255 252 248 245 241 236 235 231 227
281 278 277 272 271 269 269 270 271 270 269 268 269 273 276 277 277 278 280 283 286 286 286 285 286 287 285 284 283 280 274 266 261 258 256 251 247 245 244 239 237 235 231
279 278 275 274 272 269 270 269 269 269 270 268 267 271 272 272 275 275 280 282 283 286 287 285 285 285 285 285 285 283 279 272 267 259 256 253 246 245 246 243 239 237 234
276 274 272 273 272 271 272 272 272 272 272 273 273 272 273 272 276 277 280 285 283 283 283 283 282 282 284 283 285 283 278 275 271 266 259 253 248 245 244 243 241 238 235
279 277 277 275 276 278 276 277 279 281 285 281 281 280 281 281 282 281 283 285 285 282 282 281 279 280 280 281 282 280 277 274 271 267 262 256 250 247 245 242 241 241 237
280 280 282 283 284 287 286 289 290 289 286 283 283 282 282 282 281 281 282 284 282 282 281 279 278 278 277 277 277 277 274 272 271 265 261 257 253 248 246 243 241 240 237
285 285 287 287 286 288 290 292 292 293 291 288 286 285 285 285 284 284 284 284 283 281 280 279 278 277 275 274 274 274 272 269 268 263 259 256 253 250 245 243 243 240 237
289 290 292 293 292 293 293 294 295 295 295 293 290 289 288 286 285 285 285 284 282 282 280 279 278 275 274 273 272 270 270 269 265 262 258 255 253 252 247 244 243 240 239
299 301 302 303 301 300 300 302 303 302 300 299 297 294 293 292 290 288 287 285 283 282 281 279 277 275 273 271 270 268 267 266 263 260 257 253 252 250 248 244 243 241 239
305 306 306 307 308 309 309 308 307 305 303 301 299 296 295 293 291 290 288 286 285 283 281 280 278 275 273 271 268 266 264 262 261 258 256 253 251 249 248 245 242 240 238
307 309 311 312 313 312 311 310 309 307 305 304 301 299 297 295 293 290 288 286 284 283 281 279 278 275 273 271 268 264 261 260 258 257 255 252 250 249 249 246 241 238 236
312 313 314 314 314 313 312 311 309 307 306 304 303 301 299 297 295 293 291 288 285 284 282 280 278 276 273 271 268 264 260 257 257 255 254 251 248 247 247 245 241 238 236
314 314 313 313 313 313 311 310 308 306 305 304 303 302 301 299 298 296 293 290 288 285 282 280 278 276 273 271 268 265 261 258 255 253 252 249 246 245 244 243 241 238 234
311 312 313 313 314 314 313 311 309 307 306 304 303 302 301 300 298 296 294 292 290 287 284 281 278 276 273 270 268 265 262 259 255 252 250 249 246 244 243 242 240 236 233
310 312 314 316 317 317 316 315 314 312 309 307 305 303 302 300 299 297 295 293 291 288 285 281 278 274 272 270 267 264 262 259 256 252 248 247 245 243 242 240 238 235 233
Height
5901 5901 5901 5901 5900 5900 5899 5899 5900 5900 5900 5900 5900 5900 5900 5900 5901 5901 5901 5901 5901 5900 5900 5900 5899 5899 5898 5898 5897 5897 5897 5897 5897 5897 5896 5896 5896 5897 5897 5898 5898 5898 5898
5901 5901 5901 5900 5900 5899 5899 5899 5899 5899 5900 5900 5900 5900 5901 5901 5901 5901 5901 5900 5900 5900 5900 5900 5899 5899 5899 5898 5898 5897 5897 5897 5897 5897 5897 5897 5897 5897 5898 5898 5899 5899 5899
5901 5900 5900 5900 5899 5899 5899 5899 5899 5899 5899 5899 5900 5900 5900 5900 5900 5900 5900 5900 5900 5900 5900 5900 5899 5899 5898 5898 5898 5897 5897 5897 5897 5897 5897 5897 5897 5898 5898 5899 5899 5900 5900
5900 5900 5900 5899 5899 5898 5898 5898 5898 5898 5898 5898 5899 5899 5899 5899 5899 5899 5899 5899 5899 5899 5899 5899 5898 5898 5898 5898 5898 5897 5897 5897 5897 5897 5897 5898 5898 5898 5899 5899 5900 5900 5901
5900 5900 5899 5899 5898 5898 5897 5897 5897 5897 5897 5897 5897 5897 5897 5897 5897 5897 5897 5897 5897 5897 5897 5897 5897 5897 5897 5897 5897 5897 5897 5897 5897 5897 5897 5897 5898 5898 5899 5899 5900 5901 5901
5900 5899 5898 5898 5897 5897 5896 5896 5896 5896 5896 5896 5896 5896 5896 5895 5895 5895 5895 5895 5895 5895 5895 5895 5895 5895 5895 5895 5895 5895 5895 5896 5896 5896 5896 5897 5897 5897 5898 5899 5900 5900 5901
5899 5898 5897 5896 5896 5895 5895 5895 5895 5895 5894 5894 5894 5894 5893 5893 5893 5893 5893 5892 5893 5893 5893 5893 5893 5893 5893 5893 5893 5893 5893 5894 5894 5895 5895 5895 5896 5896 5897 5898 5899 5900 5901
5898 5897 5896 5895 5895 5894 5894 5893 5893 5893 5893 5892 5892 5891 5891 5891 5890 5890 5890 5890 5890 5890 5890 5890 5890 5890 5890 5890 5890 5891 5891 5891 5892 5892 5893 5894 5894 5895 5896 5896 5897 5899 5900
5896 5896 5895 5894 5893 5892 5892 5891 5891 5891 5891 5890 5890 5889 5889 5889 5888 5888 5888 5887 5887 5886 5886 5886 5886 5886 5886 5887 5887 5887 5888 5888 5889 5889 5890 5891 5892 5893 5894 5895 5896 5897 5898
5894 5893 5892 5891 5891 5890 5889 5889 5889 5889 5888 5888 5887 5887 5886 5886 5886 5885 5885 5884 5883 5883 5883 5882 5882 5882 5882 5882 5883 5883 5884 5884 5885 5886 5887 5888 5889 5890 5891 5892 5894 5895 5896
5891 5890 5890 5889 5888 5887 5886 5886 5886 5886 5885 5885 5884 5883 5883 5882 5882 5881 5881 5880 5880 5879 5879 5878 5878 5877 5877 5877 5878 5878 5879 5880 5880 5881 5882 5884 5885 5886 5888 5889 5891 5892 5894
5888 5887 5886 5885 5884 5883 5883 5882 5882 5881 5881 5880 5879 5879 5878 5878 5877 5877 5876 5876 5875 5875 5874 5874 5873 5872 5872 5872 5872 5872 5873 5874 5875 5876 5877 5879 5880 5882 5884 5885 5887 5889 5891
5883 5882 5881 5881 5880 5879 5878 5878 5877 5876 5876 5875 5874 5874 5873 5873 5872 5871 5871 5870 5870 5869 5869 5868 5868 5867 5866 5866 5866 5866 5866 5867 5869 5870 5871 5873 5875 5877 5879 5881 5883 5885 5887
5879 5878 5877 5876 5875 5874 5873 5872 5871 5870 5869 5869 5868 5868 5867 5866 5866 5865 5865 5864 5864 5863 5862 5862 5862 5861 5861 5860 5860 5860 5860 5861 5862 5863 5865 5866 5869 5871 5873 5875 5878 5880 5882
5874 5873 5872 5871 5869 5868 5867 5866 5864 5863 5862 5862 5861 5861 5860 5860 5859 5859 5858 5858 5856 5856 5856 5856 5856 5855 5855 5854 5854 5854 5854 5854 5855 5856 5858 5860 5862 5864 5867 5869 5872 5874 5877
5869 5868 5867 5865 5864 5862 5861 5859 5857 5857 5856 5856 5855 5855 5854 5853 5853 5853 5852 5851 5850 5850 5850 5849 5849 5849 5849 5848 5848 5848 5848 5848 5848 5849 5851 5853 5855 5857 5859 5862 5865 5868 5871
5864 5863 5862 5861 5859 5858 5856 5855 5853 5852 5852 5851 5849 5849 5848 5848 5847 5847 5846 5845 5844 5843 5843 5842 5842 5842 5842 5841 5841 5841 5841 5841 5841 5842 5844 5845 5847 5850 5852 5855 5858 5861 5864
5860 5859 5858 5856 5855 5853 5852 5851 5849 5847 5846 5845 5844 5843 5842 5841 5840 5839 5838 5837 5837 5836 5835 5835 5834 5834 5834 5833 5834 5833 5834 5834 5835 5835 5836 5838 5840 5842 5845 5848 5851 5854 5857
5856 5855 5854 5852 5851 5849 5848 5846 5844 5842 5840 5839 5838 5836 5835 5834 5833 5832 5831 5829 5828 5827 5827 5826 5826 5825 5825 5825 5826 5826 5826 5827 5827 5828 5829 5830 5833 5835 5838 5840 5843 5846 5850
5852 5851 5850 5848 5846 5845 5843 5841 5839 5837 5835 5833 5830 5829 5828 5826 5825 5823 5821 5820 5819 5818 5817 5817 5816 5816 5816 5816 5817 5818 5818 5819 5820 5821 5822 5823 5825 5828 5830 5833 5836 5839 5842
5849 5847 5846 5844 5842 5840 5838 5836 5833 5831 5829 5826 5824 5822 5820 5818 5816 5814 5813 5811 5810 5808 5807 5807 5806 5806 5806 5806 5808 5809 5810 5811 5812 5813 5814 5816 5818 5820 5822 5825 5828 5831 5835
5846 5844 5842 5840 5837 5835 5833 5830 5827 5825 5822 5819 5817 5814 5811 5809 5807 5805 5804 5802 5800 5799 5798 5797 5796 5796 5796 5796 5797 5799 5801 5802 5803 5804 5806 5808 5810 5812 5814 5817 5820 5824 5827
5842 5841 5838 5836 5833 5830 5827 5824 5821 5818 5815 5812 5809 5806 5803 5801 5799 5796 5795 5793 5791 5789 5788 5787 5786 5786 5786 5786 5786 5788 5790 5792 5793 5795 5797 5799 5801 5804 5806 5809 5812 5816 5819
5839 5837 5835 5832 5829 5826 5822 5819 5815 5812 5808 5805 5801 5798 5795 5792 5790 5787 5785 5783 5781 5780 5778 5777 5776 5775 5776 5776 5776 5777 5779 5781 5783 5786 5788 5789 5792 5795 5798 5801 5804 5807 5811
5837 5834 5832 5828 5825 5821 5818 5814 5810 5806 5802 5798 5794 5791 5787 5784 5781 5779 5776 5774 5772 5770 5769 5767 5766 5765 5765 5765 5766 5766 5768 5770 5772 5775 5778 5780 5782 5786 5788 5792 5795 5799 5803
5834 5831 5828 5824 5820 5816 5812 5808 5804 5799 5795 5791 5787 5784 5780 5776 5773 5770 5767 5765 5762 5760 5758 5757 5756 5755 5755 5755 5755 5756 5758 5759 5761 5764 5768 5770 5773 5776 5779 5783 5786 5790 5794